Location: Amsterdam
(30.7274°N, 84.4357°W)
Time: 04:24:01
(UTC+00:00)

MOZHAYETS 4 - Pass Details

Date: 22 March 2026
Orbit: 642 x 659 km, 98.3° (Epoch: 15 April)

Event Time Altitude Azimuth Distance (km) Brightness Sun altitude
Rises 00:37:19 0° 347° (NNW) 2,960 11.3 -11.0°
Reaches altitude 10° 00:40:40 10° 319° (NW) 2,042 11.0 -11.7°
Maximum altitude 00:42:39 13° 293° (WNW) 1,851 11.3 -12.1°
Drops below altitude 10° 00:44:37 10° 266° (W) 2,034 11.6 -12.5°
Sets 00:47:58 0° 239° (WSW) 2,937 11.9 -13.2°
